[[{"header":{"parameterUnit":"m.s-1","parameterCategory":2,"la1":30.2991,"la2":30.254,"lo1":-89.0895,"lo2":-89.0444,"dy":0.0017,"dx":0.0017,"nx":28,"ny":28,"refTime":"2025-07-10T21:00:00:Z","depth":"0","parameterNumber":2,"parameterNumberName":"U-component_of_CURRENTS"},"data":[0,0,0,0,0,0,0,0,0,0,0,0,0,0,0,0,0,0,0,0,0,0,0,0,0,0,0,0,0,0,0,0,0,0,0,0,0,0,0,0,0,0,0,0,0,0,0,0,0,0,0,0,0,0,0,0,0,0,-0.2304,-0.2304,0,-0.2249,-0.2248,-0.2247,-0.2195,-0.2195,-0.2194,-0.2194,-0.2071,-0.2068,-0.2065,0,0,0,0,0,0,0,0,0,0,0,0,0,-0.2261,-0.2262,-0.2304,-0.2304,-0.2304,-0.2249,-0.2248,-0.2246,-0.2195,-0.2195,-0.2194,-0.2194,-0.2072,-0.2068,-0.2064,0,0,0,0,0,0,0,0,0,0,0,0,0,-0.2245,-0.2263,-0.2304,-0.2275,-0.2273,-0.2249,-0.2247,-0.2246,-0.2195,-0.2195,-0.2194,-0.2194,-0.2073,-0.2068,-0.2064,-0.2039,0,0,-0.2049,-0.2047,0,0,0,0,0,0,0,0,-0.2246,-0.2246,-0.228,-0.2277,-0.2274,-0.2233,-0.2187,-0.2175,-0.2195,-0.2219,-0.2194,-0.2194,-0.2122,-0.2114,-0.2097,-0.2033,-0.2028,-0.2049,-0.2046,-0.2044,-0.2043,0,0,0,0,0,0,0,-0.2248,-0.2248,-0.2277,-0.228,-0.2276,-0.223,-0.2228,-0.2184,-0.2167,-0.2217,-0.2214,-0.2216,-0.212,-0.2102,-0.2094,-0.2026,-0.2049,-0.2045,-0.2042,-0.204,-0.1987,-0.1989,0,0,0,0,0,0,-0.2272,-0.225,-0.2279,-0.2276,-0.2266,-0.2232,-0.2229,-0.2242,-0.2169,-0.216,-0.2217,-0.2214,-0.211,-0.2099,-0.2089,-0.2075,-0.2044,-0.204,-0.2037,-0.1986,-0.1988,-0.1989,0,0,0,0,0,0,-0.2271,-0.2275,-0.2281,-0.2264,-0.2263,-0.2234,-0.2248,-0.2241,-0.2223,-0.2171,-0.2159,-0.2207,-0.2109,-0.2096,-0.2064,-0.2069,-0.2037,-0.2033,-0.1984,-0.1986,-0.1988,-0.2035,0,0,0,0,0,0,-0.227,-0.2275,-0.2284,-0.2267,-0.2265,-0.2275,-0.2249,-0.2241,-0.2228,-0.2224,-0.2158,-0.2147,-0.2108,-0.2071,-0.2059,-0.2062,-0.2029,-0.1982,-0.1985,-0.1988,-0.2032,-0.2038,-0.2044,0,0,0,0,0,-0.2269,-0.2286,-0.2285,-0.2288,-0.2281,-0.2276,-0.227,-0.2244,-0.2228,-0.2225,-0.2188,-0.2149,-0.208,-0.2068,-0.2054,-0.2055,-0.1981,-0.1984,-0.1988,-0.2029,-0.2037,-0.2044,0,0,0,0,0,0,-0.2266,-0.2283,-0.228,-0.2301,-0.2294,-0.227,-0.2264,-0.2248,-0.2214,-0.2207,-0.2153,-0.214,-0.2122,-0.2087,-0.2075,-0.2055,-0.2029,-0.203,-0.2066,-0.2073,-0.2079,-0.2086,-0.2026,0,0,0,0,0,-0.2274,-0.2293,-0.2296,-0.2309,-0.231,-0.2286,-0.2278,-0.2265,-0.224,-0.2224,-0.2182,-0.2146,-0.2124,-0.2097,-0.2073,-0.2044,-0.2046,-0.2044,-0.205,-0.2056,-0.2055,-0.2067,-0.2074,-0.2,-0.2,-0.2,0,0,-0.2276,-0.2288,-0.2297,-0.2309,-0.2298,-0.2296,-0.2279,-0.2275,-0.2264,-0.2215,-0.2183,-0.2166,-0.2127,-0.2109,-0.2097,-0.2075,-0.2086,-0.206,-0.2064,-0.206,-0.2072,-0.2079,-0.2085,-0.2002,-0.2002,-0.2001,0,0,-0.2283,-0.2301,-0.2314,-0.2316,-0.2316,-0.2304,-0.2307,-0.2289,-0.2274,-0.2252,-0.2227,-0.2227,-0.2161,-0.2154,-0.2137,-0.2166,-0.2129,-0.2147,-0.2163,-0.2175,-0.2181,-0.2186,-0.223,-0.2238,-0.2137,-0.2137,-0.2137,0,-0.2277,-0.2294,-0.2313,-0.2322,-0.2311,-0.2311,-0.2302,-0.2297,-0.2269,-0.2257,-0.2251,-0.2213,-0.2193,-0.2181,-0.2195,-0.218,-0.2177,-0.2131,-0.2183,-0.2187,-0.2192,-0.2234,-0.2243,-0.214,-0.214,-0.2139,-0.2139,0,-0.2292,-0.2297,-0.2304,-0.2313,-0.2313,-0.2305,-0.2308,-0.2302,-0.2286,-0.2279,-0.2274,-0.2266,-0.224,-0.2246,-0.222,-0.2237,-0.2226,-0.2198,-0.2159,-0.2202,-0.2245,-0.2253,-0.2144,-0.2143,-0.2142,-0.2141,0,0,-0.2252,-0.2303,-0.2296,-0.2281,-0.2298,-0.2284,-0.2294,-0.2283,-0.2274,-0.2282,-0.227,-0.228,-0.2283,-0.2268,-0.2256,-0.227,-0.2325,-0.2236,-0.2235,-0.2274,-0.2361,-0.2319,-0.2324,-0.2282,-0.2283,-0.2284,-0.239,0,-0.2229,-0.2241,-0.2276,-0.2248,-0.223,-0.2248,-0.2249,-0.2252,-0.2256,-0.2255,-0.2284,-0.2276,-0.2288,-0.2275,-0.23,-0.2307,-0.2341,-0.2299,-0.2318,-0.232,-0.2272,-0.233,-0.2118,-0.219,-0.2398,-0.2399,-0.24,0,-0.2183,-0.2199,-0.2186,-0.2181,-0.2177,-0.2173,-0.2153,-0.216,-0.2195,-0.2202,-0.2232,-0.2252,-0.2295,-0.2293,-0.2361,-0.2319,-0.2348,-0.2369,-0.2372,-0.2316,-0.2292,-0.2175,-0.2196,-0.1899,-0.2412,-0.2411,-0.241,0,-0.207,-0.2099,-0.2079,-0.208,-0.2108,-0.2095,-0.2101,-0.2129,-0.2137,-0.2169,-0.2188,-0.2239,-0.2261,-0.231,-0.2376,-0.2353,-0.245,-0.2426,-0.2434,-0.2433,-0.2251,-0.2231,-0.1975,-0.2485,-0.2485,-0.2485,-0.2484,0,-0.1975,-0.1935,-0.2026,-0.2002,-0.1975,-0.2015,-0.1992,-0.2013,-0.2064,-0.2086,-0.215,-0.2184,-0.2257,-0.2326,-0.2382,-0.2441,-0.2464,-0.2455,-0.2454,-0.2266,-0.2247,-0.1977,-0.204,-0.2489,-0.2488,-0.2487,-0.2486,0,-0.18,-0.1865,-0.1839,-0.1897,-0.1911,-0.1879,-0.1931,-0.1937,-0.1988,-0.2025,-0.204,-0.2141,-0.2231,-0.2328,-0.2417,-0.2439,-0.243,-0.2521,-0.2316,-0.2288,-0.2001,-0.2083,-0.2191,-0.214,-0.2545,-0.2544,-0.2544,0,-0.1705,-0.1684,-0.1758,-0.1769,-0.1785,-0.1783,-0.1803,-0.1871,-0.1904,-0.2005,-0.2029,-0.2128,-0.2199,-0.2334,-0.2367,-0.2463,-0.2426,-0.2326,-0.2251,-0.1958,-0.2048,-0.2181,-0.2139,-0.205,-0.2045,-0.2042,-0.2039,0,-0.1525,-0.1567,-0.1573,-0.1636,-0.1658,-0.1685,-0.1726,-0.1751,-0.1851,-0.1904,-0.1989,-0.2051,-0.2156,-0.2125,-0.2227,-0.2272,-0.2178,-0.2256,-0.1972,-0.1675,-0.1786,-0.1739,-0.2038,-0.2007,-0.201,-0.2012,-0.2014,-0.2015,-0.1403,-0.138,-0.1452,-0.149,-0.1536,-0.1594,-0.1601,-0.1686,-0.1743,-0.183,-0.1918,-0.1939,-0.1813,-0.1912,-0.1922,-0.1631,-0.2021,-0.1536,-0.168,-0.1849,-0.173,-0.199,-0.1938,-0.1941,-0.1943,-0.1945,-0.1947,0,-0.1286,-0.1292,-0.1318,-0.1383,-0.1418,-0.1482,-0.1564,-0.1584,-0.1651,-0.1692,-0.1762,-0.1518,-0.138,-0.1223,-0.0935,-0.0919,-0.1004,-0.096,-0.0968,-0.097,-0.1113,-0.0991,-0.0701,-0.0701,-0.0701,-0.0701,-0.0702,-0.0702,-0.1227,-0.121,-0.1241,-0.1272,-0.1315,-0.1345,-0.1382,-0.1438,-0.1454,-0.1341,-0.1185,-0.1129,-0.0714,-0.0466,-0.0157,-0.0239,-0.026,-0.0519,-0.0606,-0.0471,-0.0528,-0.0582,-0.0453,-0.0055,-0.0056,-0.0251,-0.0253,-0.0254]},{"header":{"parameterUnit":"m.s-1","parameterCategory":2,"la1":30.2991,"la2":30.254,"lo1":-89.0895,"lo2":-89.0444,"dy":0.0017,"dx":0.0017,"nx":28,"ny":28,"refTime":"2025-07-10T21:00:00:Z","depth":"0","parameterNumber":3,"parameterNumberName":"V-component_of_CURRENTS"},"data":[0,0,0,0,0,0,0,0,0,0,0,0,0,0,0,0,0,0,0,0,0,0,0,0,0,0,0,0,0,0,0,0,0,0,0,0,0,0,0,0,0,0,0,0,0,0,0,0,0,0,0,0,0,0,0,0,0,0,-0.0651,-0.0651,0,-0.0648,-0.0647,-0.0647,-0.0618,-0.0617,-0.0617,-0.0616,-0.056,-0.0559,-0.0558,0,0,0,0,0,0,0,0,0,0,0,0,0,-0.058,-0.0582,-0.0651,-0.0651,-0.0651,-0.0648,-0.0647,-0.0647,-0.0618,-0.0617,-0.0616,-0.0616,-0.056,-0.0559,-0.0558,0,0,0,0,0,0,0,0,0,0,0,0,0,-0.0596,-0.0582,-0.0651,-0.0636,-0.0635,-0.0648,-0.0647,-0.0647,-0.0618,-0.0617,-0.0616,-0.0615,-0.0561,-0.056,-0.0558,-0.057,0,0,-0.0554,-0.0554,0,0,0,0,0,0,0,0,-0.0596,-0.0599,-0.0638,-0.0637,-0.0636,-0.0633,-0.0602,-0.0619,-0.0618,-0.0624,-0.0616,-0.0615,-0.0581,-0.0578,-0.0579,-0.0567,-0.0565,-0.0554,-0.0553,-0.0553,-0.0552,0,0,0,0,0,0,0,-0.0594,-0.0599,-0.0649,-0.0639,-0.0637,-0.0613,-0.0614,-0.0605,-0.0606,-0.0623,-0.0621,-0.0623,-0.058,-0.058,-0.0577,-0.0564,-0.0554,-0.0553,-0.0552,-0.0552,-0.0588,-0.059,0,0,0,0,0,0,-0.0601,-0.0598,-0.0649,-0.0649,-0.0614,-0.0615,-0.0617,-0.0634,-0.0607,-0.0603,-0.0623,-0.0621,-0.0583,-0.0579,-0.0575,-0.0617,-0.0553,-0.0552,-0.0551,-0.0587,-0.0589,-0.0591,0,0,0,0,0,0,-0.06,-0.0606,-0.0649,-0.0622,-0.0626,-0.0618,-0.0637,-0.0635,-0.063,-0.0608,-0.0602,-0.0621,-0.0582,-0.0577,-0.0582,-0.0613,-0.0551,-0.055,-0.0584,-0.0587,-0.059,-0.0681,0,0,0,0,0,0,-0.0598,-0.0606,-0.0619,-0.0624,-0.0628,-0.0657,-0.0638,-0.0635,-0.0633,-0.063,-0.0604,-0.0598,-0.0581,-0.0584,-0.0581,-0.061,-0.0549,-0.0582,-0.0586,-0.0589,-0.0676,-0.0687,-0.0696,0,0,0,0,0,-0.0596,-0.0621,-0.0621,-0.0626,-0.0648,-0.0658,-0.0658,-0.0646,-0.0634,-0.0637,-0.0631,-0.0599,-0.0603,-0.0585,-0.058,-0.061,-0.0581,-0.0585,-0.0589,-0.0672,-0.0685,-0.0696,0,0,0,0,0,0,-0.0593,-0.062,-0.062,-0.0651,-0.0653,-0.0653,-0.0656,-0.0649,-0.0647,-0.0642,-0.0618,-0.0613,-0.0631,-0.0609,-0.059,-0.0632,-0.0588,-0.0591,-0.0652,-0.0664,-0.0674,-0.075,-0.0548,0,0,0,0,0,-0.0601,-0.0631,-0.064,-0.0664,-0.0666,-0.066,-0.0662,-0.0656,-0.0655,-0.0652,-0.0639,-0.0633,-0.0647,-0.0644,-0.0643,-0.0661,-0.0695,-0.0679,-0.0689,-0.0697,-0.0758,-0.0822,-0.0844,-0.0604,-0.0604,-0.0604,0,0,-0.0608,-0.0625,-0.0642,-0.0665,-0.0665,-0.07,-0.0659,-0.0664,-0.0705,-0.0647,-0.0687,-0.0663,-0.0659,-0.0689,-0.0694,-0.0671,-0.0782,-0.0702,-0.071,-0.0767,-0.0828,-0.0852,-0.0873,-0.0606,-0.0606,-0.0605,0,0,-0.0643,-0.0648,-0.0687,-0.0701,-0.071,-0.0714,-0.0718,-0.0718,-0.0726,-0.0751,-0.0737,-0.0759,-0.0736,-0.0777,-0.0787,-0.0857,-0.0832,-0.0815,-0.0928,-0.0988,-0.1009,-0.1028,-0.1101,-0.1126,-0.082,-0.082,-0.0821,0,-0.0646,-0.0716,-0.0695,-0.0738,-0.0776,-0.073,-0.0793,-0.0793,-0.0798,-0.0845,-0.0772,-0.0839,-0.0806,-0.092,-0.0925,-0.0887,-0.0903,-0.0878,-0.1004,-0.1024,-0.1042,-0.1112,-0.1138,-0.0825,-0.0825,-0.0824,-0.0824,0,-0.0718,-0.0779,-0.0799,-0.0858,-0.0881,-0.0922,-0.0931,-0.0955,-0.0944,-0.0963,-0.1039,-0.1008,-0.1065,-0.1033,-0.0989,-0.1109,-0.1073,-0.1007,-0.0978,-0.1072,-0.1139,-0.1165,-0.0832,-0.0831,-0.0829,-0.0828,0,0,-0.0724,-0.0839,-0.0848,-0.0928,-0.0962,-0.1001,-0.1068,-0.1154,-0.1241,-0.1209,-0.1334,-0.1329,-0.1306,-0.1321,-0.1271,-0.1303,-0.141,-0.1197,-0.1197,-0.1281,-0.1545,-0.139,-0.1402,-0.1337,-0.1342,-0.1346,-0.154,0,-0.0798,-0.0946,-0.0973,-0.1116,-0.1199,-0.1212,-0.1298,-0.1358,-0.1382,-0.1471,-0.1468,-0.1531,-0.1416,-0.1429,-0.1454,-0.1408,-0.1482,-0.1365,-0.1436,-0.144,-0.1298,-0.1429,-0.1215,-0.1358,-0.1565,-0.157,-0.1573,0,-0.0857,-0.0971,-0.1142,-0.1315,-0.135,-0.1422,-0.1585,-0.1651,-0.1749,-0.1763,-0.1825,-0.1791,-0.1858,-0.1714,-0.1776,-0.1687,-0.1658,-0.1618,-0.1622,-0.1477,-0.1333,-0.1297,-0.1396,-0.1023,-0.1612,-0.1609,-0.1606,0,-0.0907,-0.1082,-0.1248,-0.1301,-0.1472,-0.1566,-0.1646,-0.1757,-0.1839,-0.1951,-0.1995,-0.2065,-0.207,-0.2063,-0.1936,-0.1865,-0.1978,-0.1878,-0.1757,-0.1746,-0.1588,-0.1553,-0.1351,-0.1999,-0.1998,-0.1998,-0.1997,0,-0.0981,-0.109,-0.1294,-0.1393,-0.1596,-0.1662,-0.1854,-0.1934,-0.2045,-0.2148,-0.2145,-0.2214,-0.2139,-0.2149,-0.2062,-0.1981,-0.2097,-0.1844,-0.1803,-0.1608,-0.1574,-0.1257,-0.114,-0.2005,-0.2004,-0.2002,-0.2001,0,-0.0963,-0.1094,-0.1315,-0.1563,-0.163,-0.1773,-0.1951,-0.2066,-0.2153,-0.2281,-0.2309,-0.2345,-0.2347,-0.2287,-0.227,-0.2119,-0.1889,-0.2034,-0.1806,-0.1733,-0.1213,-0.1114,-0.1142,-0.0995,-0.1959,-0.1957,-0.1955,0,-0.0958,-0.1069,-0.1433,-0.1566,-0.1674,-0.1866,-0.198,-0.211,-0.2201,-0.2343,-0.2394,-0.2446,-0.2459,-0.2391,-0.2174,-0.2078,-0.1855,-0.1772,-0.1606,-0.1203,-0.1065,-0.1079,-0.0955,-0.1453,-0.1447,-0.1442,-0.1438,0,-0.0942,-0.1093,-0.1315,-0.1627,-0.1801,-0.1977,-0.2132,-0.2211,-0.2333,-0.2419,-0.2508,-0.2543,-0.2448,-0.2211,-0.202,-0.1887,-0.1462,-0.1664,-0.1317,-0.0734,-0.0681,-0.0508,-0.1314,-0.1394,-0.1398,-0.1401,-0.1404,-0.1406,-0.0929,-0.1109,-0.1429,-0.17,-0.1889,-0.2048,-0.2154,-0.2257,-0.2383,-0.2427,-0.2512,-0.2404,-0.2084,-0.1787,-0.1636,-0.0973,-0.1208,-0.0697,-0.0649,-0.0732,-0.0458,-0.1168,-0.1126,-0.1129,-0.1131,-0.1133,-0.1135,0,-0.0912,-0.1143,-0.1439,-0.1796,-0.1967,-0.2059,-0.2222,-0.2259,-0.2344,-0.2247,-0.2286,-0.1787,-0.1419,-0.0997,-0.0286,0.0069,0.008,0.0267,0.0353,0.0402,-0.0249,-0.0069,0.0294,0.0293,0.0293,0.0293,0.0292,0.0292,-0.0937,-0.1202,-0.1426,-0.1774,-0.1963,-0.2127,-0.2197,-0.2199,-0.2105,-0.1766,-0.1375,-0.1153,-0.048,0.0276,0.1025,0.11,0.1328,0.1237,0.1278,0.0992,0.0909,0.0829,0.1037,0.1625,0.1626,0.1985,0.199,0.1993]}],[{"header":{"parameterUnit":"m.s-1","parameterCategory":2,"la1":30.2991,"la2":30.254,"lo1":-89.0895,"lo2":-89.0444,"dy":0.0017,"dx":0.0017,"nx":28,"ny":28,"refTime":"2025-07-10T21:00:00:Z","depth":"2","parameterNumber":2,"parameterNumberName":"U-component_of_CURRENTS"},"data":[0,0,0,0,0,0,0,0,0,0,0,0,0,0,0,0,0,0,0,0,0,0,0,0,0,0,0,0,0,0,0,0,0,0,0,0,0,0,0,0,0,0,0,0,0,0,0,0,0,0,0,0,0,0,0,0,0,0,-0.1891,-0.1892,0,-0.1983,-0.1983,-0.1984,-0.2054,-0.2055,-0.2057,-0.2058,-0.2168,-0.217,-0.2171,0,0,0,0,0,0,0,0,0,0,0,0,0,-0.1731,-0.1733,-0.189,-0.1892,-0.1894,-0.1983,-0.1983,-0.1984,-0.2054,-0.2055,-0.2057,-0.2058,-0.2167,-0.2169,-0.2172,0,0,0,0,0,0,0,0,0,0,0,0,0,-0.1804,-0.1734,-0.189,-0.1943,-0.1949,-0.1982,-0.1983,-0.1984,-0.2054,-0.2055,-0.2057,-0.2059,-0.2166,-0.2169,-0.2172,-0.2155,0,0,-0.2181,-0.2182,0,0,0,0,0,0,0,0,-0.18,-0.181,-0.1934,-0.194,-0.1946,-0.2013,-0.1968,-0.2044,-0.2053,-0.2008,-0.2058,-0.206,-0.212,-0.2127,-0.2133,-0.2161,-0.2165,-0.2181,-0.2183,-0.2184,-0.2185,0,0,0,0,0,0,0,-0.1795,-0.1806,-0.1922,-0.1935,-0.1943,-0.1948,-0.196,-0.1982,-0.205,-0.2013,-0.2019,-0.2037,-0.2123,-0.213,-0.2136,-0.2167,-0.2181,-0.2183,-0.2185,-0.2186,-0.2197,-0.2195,0,0,0,0,0,0,-0.1795,-0.1801,-0.1919,-0.1925,-0.1882,-0.195,-0.1963,-0.1986,-0.2049,-0.2062,-0.2036,-0.204,-0.2124,-0.2132,-0.214,-0.213,-0.2184,-0.2186,-0.2188,-0.2198,-0.2196,-0.2195,0,0,0,0,0,0,-0.1791,-0.1805,-0.1915,-0.1869,-0.1884,-0.1952,-0.1976,-0.1987,-0.2013,-0.2068,-0.208,-0.2054,-0.2126,-0.2136,-0.2196,-0.2135,-0.2188,-0.219,-0.22,-0.2198,-0.2196,-0.2106,0,0,0,0,0,0,-0.1786,-0.1803,-0.1814,-0.1869,-0.1887,-0.1928,-0.1975,-0.1988,-0.2023,-0.203,-0.2087,-0.2098,-0.2128,-0.2191,-0.2199,-0.2139,-0.2192,-0.2202,-0.2199,-0.2196,-0.211,-0.2101,-0.2092,0,0,0,0,0,-0.178,-0.1798,-0.1814,-0.1829,-0.1903,-0.1927,-0.1935,-0.1985,-0.2023,-0.2018,-0.2089,-0.2097,-0.2177,-0.2195,-0.2203,-0.2142,-0.2203,-0.22,-0.2196,-0.2114,-0.2102,-0.2093,0,0,0,0,0,0,-0.1742,-0.1809,-0.1828,-0.1867,-0.1889,-0.1941,-0.1948,-0.1987,-0.2036,-0.205,-0.2112,-0.2127,-0.2157,-0.2166,-0.2184,-0.2136,-0.2177,-0.2175,-0.2111,-0.21,-0.2092,-0.2117,-0.2195,0,0,0,0,0,-0.1736,-0.1759,-0.1814,-0.1836,-0.1846,-0.1895,-0.1914,-0.1944,-0.1998,-0.2021,-0.2079,-0.2117,-0.2142,-0.2141,-0.2181,-0.2158,-0.2214,-0.2114,-0.2105,-0.2097,-0.2122,-0.2111,-0.2104,-0.2184,-0.2184,-0.2185,0,0,-0.1719,-0.1765,-0.1773,-0.1826,-0.1846,-0.1867,-0.1909,-0.1929,-0.195,-0.2024,-0.2079,-0.2116,-0.2143,-0.2136,-0.214,-0.2134,-0.2117,-0.2093,-0.2086,-0.2117,-0.2107,-0.21,-0.2093,-0.2182,-0.2183,-0.2183,0,0,-0.17,-0.1739,-0.1748,-0.1772,-0.1811,-0.1838,-0.1847,-0.1905,-0.1928,-0.1967,-0.2032,-0.2049,-0.2082,-0.2089,-0.2091,-0.2052,-0.2099,-0.2032,-0.197,-0.1957,-0.1951,-0.1946,-0.2068,-0.2074,-0.1988,-0.1988,-0.1988,0,-0.1684,-0.1716,-0.1748,-0.1771,-0.1794,-0.183,-0.1842,-0.1862,-0.1939,-0.1955,-0.1971,-0.2033,-0.2053,-0.2042,-0.2023,-0.2029,-0.208,-0.2006,-0.1946,-0.1942,-0.1938,-0.2064,-0.2072,-0.1983,-0.1984,-0.1984,-0.1985,0,-0.167,-0.1705,-0.1708,-0.1753,-0.177,-0.1781,-0.1819,-0.184,-0.1868,-0.1895,-0.1913,-0.1944,-0.1973,-0.1944,-0.1972,-0.1936,-0.2008,-0.1965,-0.1974,-0.1924,-0.2061,-0.2072,-0.1976,-0.1978,-0.1979,-0.1981,0,0,-0.1635,-0.1688,-0.1694,-0.1709,-0.1765,-0.1772,-0.1794,-0.1816,-0.1831,-0.1852,-0.1867,-0.1867,-0.1885,-0.1892,-0.1903,-0.187,-0.1898,-0.1893,-0.1894,-0.2021,-0.1973,-0.1774,-0.1768,-0.1825,-0.1825,-0.1824,-0.2102,0,-0.1619,-0.1645,-0.1683,-0.1703,-0.1719,-0.1758,-0.1775,-0.1796,-0.1813,-0.1839,-0.1826,-0.185,-0.1857,-0.1855,-0.1827,-0.1906,-0.1911,-0.1835,-0.1999,-0.2008,-0.1836,-0.1764,-0.1526,-0.1726,-0.2112,-0.2114,-0.2116,0,-0.1614,-0.1632,-0.1643,-0.1684,-0.1691,-0.1705,-0.1729,-0.1746,-0.1776,-0.1787,-0.1792,-0.1824,-0.1845,-0.1813,-0.1915,-0.1868,-0.1922,-0.196,-0.1969,-0.182,-0.1821,-0.1825,-0.1731,-0.2134,-0.2132,-0.2131,-0.213,0,-0.1574,-0.1617,-0.1617,-0.1634,-0.1676,-0.1678,-0.1691,-0.1725,-0.1749,-0.176,-0.1808,-0.1812,-0.1882,-0.1885,-0.1983,-0.1951,-0.2098,-0.2059,-0.1957,-0.1953,-0.1801,-0.1777,-0.2099,-0.2099,-0.2098,-0.2097,-0.2096,0,-0.1566,-0.1571,-0.1594,-0.1597,-0.1581,-0.1632,-0.1624,-0.1643,-0.1701,-0.1763,-0.1783,-0.1854,-0.1893,-0.1988,-0.201,-0.2032,-0.2128,-0.1962,-0.1965,-0.1767,-0.1737,-0.2115,-0.2113,-0.2108,-0.2105,-0.2103,-0.2102,0,-0.1527,-0.1552,-0.1546,-0.1565,-0.1565,-0.1545,-0.1585,-0.163,-0.1682,-0.1777,-0.1799,-0.1941,-0.2045,-0.2099,-0.2177,-0.2101,-0.21,-0.2084,-0.1907,-0.1874,-0.1993,-0.1984,-0.2009,-0.2003,-0.1998,-0.1994,-0.1991,0,-0.1501,-0.15,-0.1492,-0.1491,-0.1496,-0.1485,-0.1531,-0.1586,-0.1674,-0.184,-0.1933,-0.2058,-0.2105,-0.2152,-0.2007,-0.1974,-0.2093,-0.1746,-0.1555,-0.196,-0.1964,-0.1963,-0.196,-0.1415,-0.1407,-0.1401,-0.1396,0,-0.1446,-0.1445,-0.1433,-0.1428,-0.146,-0.1512,-0.1588,-0.1631,-0.1773,-0.1859,-0.2022,-0.204,-0.2045,-0.1825,-0.1711,-0.1653,-0.1692,-0.1604,-0.2073,-0.1397,-0.1397,-0.1402,-0.142,-0.1338,-0.1344,-0.1348,-0.1351,-0.1354,-0.1388,-0.1364,-0.1367,-0.1352,-0.1432,-0.1565,-0.1525,-0.1677,-0.1759,-0.1844,-0.1966,-0.1889,-0.1798,-0.144,-0.1332,-0.1199,-0.1324,-0.1219,-0.1242,-0.1271,-0.1072,-0.1053,-0.0908,-0.0911,-0.0914,-0.0916,-0.0918,0,-0.1324,-0.1316,-0.1308,-0.131,-0.1389,-0.1471,-0.16,-0.1549,-0.1584,-0.166,-0.1669,-0.1425,-0.119,-0.1127,-0.0765,-0.0637,-0.0674,-0.0636,-0.0681,-0.0733,-0.0781,-0.0562,-0.0262,-0.0261,-0.026,-0.0259,0,0,-0.1292,-0.1267,-0.1261,-0.1287,-0.1307,-0.1347,-0.1383,-0.1338,-0.1298,-0.1234,-0.1144,-0.1171,-0.1058,-0.0716,-0.0561,-0.0345,-0.0563,-0.0313,-0.082,-0.0924,-0.0972,-0.1069,-0.078,0,0,0,0,0]},{"header":{"parameterUnit":"m.s-1","parameterCategory":2,"la1":30.2991,"la2":30.254,"lo1":-89.0895,"lo2":-89.0444,"dy":0.0017,"dx":0.0017,"nx":28,"ny":28,"refTime":"2025-07-10T21:00:00:Z","depth":"2","parameterNumber":3,"parameterNumberName":"V-component_of_CURRENTS"},"data":[0,0,0,0,0,0,0,0,0,0,0,0,0,0,0,0,0,0,0,0,0,0,0,0,0,0,0,0,0,0,0,0,0,0,0,0,0,0,0,0,0,0,0,0,0,0,0,0,0,0,0,0,0,0,0,0,0,0,-0.0155,-0.0154,0,-0.0044,-0.0042,-0.0041,0.0062,0.0063,0.0064,0.0065,0.0554,0.0565,0.0577,0,0,0,0,0,0,0,0,0,0,0,0,0,-0.0189,-0.0189,-0.0155,-0.0154,-0.0152,-0.0044,-0.0042,-0.0041,0.0062,0.0063,0.0065,0.0066,0.055,0.0564,0.0578,0,0,0,0,0,0,0,0,0,0,0,0,0,-0.0135,-0.0189,-0.0155,-0.0089,-0.0082,-0.0044,-0.0042,-0.004,0.0061,0.0063,0.0065,0.0067,0.0545,0.0562,0.058,0.0654,0,0,0.0635,0.0642,0,0,0,0,0,0,0,0,-0.0138,-0.0134,-0.01,-0.0093,-0.0085,-0.0003,0.0125,0.0211,0.0061,0.0008,0.0065,0.0068,0.0401,0.043,0.0443,0.0677,0.0698,0.0636,0.0647,0.0655,0.066,0,0,0,0,0,0,0,-0.0142,-0.0137,-0.011,-0.0099,-0.009,-0.0033,-0.0025,0.014,0.02,0.0013,0.002,0.0031,0.0408,0.0425,0.0456,0.0705,0.0636,0.0651,0.0662,0.0669,0.1054,0.1054,0,0,0,0,0,0,-0.0164,-0.0142,-0.0114,-0.0107,-0.0109,-0.0035,-0.0025,-0.0031,0.0191,0.0223,0.0029,0.0035,0.0394,0.0435,0.0474,0.0561,0.0654,0.0671,0.0681,0.1055,0.1054,0.1053,0,0,0,0,0,0,-0.0166,-0.0164,-0.0118,-0.0121,-0.0111,-0.0037,-0.0044,-0.003,0.0004,0.0199,0.0239,0.005,0.0397,0.0449,0.0638,0.0583,0.0679,0.0695,0.1055,0.1054,0.1054,0.0747,0,0,0,0,0,0,-0.0168,-0.0165,-0.0175,-0.0123,-0.0112,-0.0098,-0.0045,-0.0029,0.0007,0.0016,0.0231,0.0276,0.0402,0.061,0.0656,0.0609,0.0709,0.1056,0.1055,0.1054,0.0758,0.0736,0.0717,0,0,0,0,0,-0.017,-0.0184,-0.0177,-0.0173,-0.013,-0.0098,-0.0088,-0.0027,0.0006,0.0012,0.0169,0.027,0.0635,0.0626,0.0679,0.0635,0.1056,0.1055,0.1054,0.0767,0.074,0.0718,0,0,0,0,0,0,-0.0196,-0.0174,-0.0164,-0.0171,-0.0142,-0.0081,-0.0068,-0.003,0.0086,0.0112,0.0297,0.0354,0.0496,0.0624,0.0608,0.0746,0.085,0.086,0.0613,0.0591,0.0571,0.0586,0.0724,0,0,0,0,0,-0.0215,-0.0223,-0.0189,-0.0195,-0.0185,-0.013,-0.0108,-0.0075,0.0028,0.0076,0.0228,0.039,0.0525,0.0606,0.0767,0.0857,0.0959,0.0858,0.0837,0.0819,0.087,0.0943,0.0932,0.105,0.105,0.105,0,0,-0.0226,-0.0216,-0.0219,-0.0202,-0.0174,-0.0158,-0.0112,-0.009,-0.0065,0.0123,0.0232,0.0357,0.0547,0.0636,0.0705,0.0737,0.0824,0.0817,0.0799,0.0863,0.094,0.0928,0.0918,0.1049,0.1049,0.1049,0,0,-0.0249,-0.0249,-0.0259,-0.0241,-0.0214,-0.0182,-0.0178,-0.0116,-0.008,0.0018,0.0149,0.0242,0.0465,0.055,0.0628,0.0607,0.0734,0.064,0.0529,0.0593,0.0584,0.0577,0.0609,0.0607,0.06,0.06,0.0599,0,-0.0264,-0.0271,-0.0255,-0.0254,-0.0234,-0.0195,-0.0187,-0.0155,-0.0036,0.0007,0.0033,0.0295,0.0416,0.0522,0.048,0.0556,0.0619,0.0583,0.056,0.0557,0.0555,0.0591,0.0593,0.0585,0.0586,0.0588,0.0589,0,-0.0285,-0.0288,-0.0291,-0.028,-0.026,-0.0251,-0.021,-0.0177,-0.0137,-0.0092,0.0021,0.0152,0.0309,0.03,0.0383,0.0415,0.0469,0.0532,0.06,0.0523,0.0567,0.0574,0.0563,0.0569,0.0573,0.0577,0,0,-0.0327,-0.031,-0.0311,-0.03,-0.0272,-0.0254,-0.0231,-0.0186,-0.015,-0.0095,-0.0037,0.0072,0.0126,0.0223,0.0299,0.031,0.0269,0.0387,0.0397,0.0381,0.0393,0.0487,0.0506,0.0316,0.0318,0.0319,0.0396,0,-0.0346,-0.0346,-0.0329,-0.0316,-0.0308,-0.0269,-0.0242,-0.02,-0.0155,-0.0089,-0.003,0.0066,0.0099,0.0137,0.0156,0.028,0.0293,0.0243,0.0512,0.052,0.0582,0.0521,0.0468,0.0542,0.0405,0.0407,0.0408,0,-0.0375,-0.0364,-0.0359,-0.0322,-0.0313,-0.0298,-0.0239,-0.0212,-0.0139,-0.0108,-0.0042,0.004,0.0083,0.0112,0.0245,0.0212,0.0299,0.0358,0.0364,0.0594,0.0634,0.0623,0.0564,0.0424,0.0422,0.0421,0.042,0,-0.0408,-0.0386,-0.0378,-0.0367,-0.0322,-0.0305,-0.0277,-0.0214,-0.0217,-0.0119,-0.0132,0.0004,0.0013,0.0157,0.0256,0.0259,0.0401,0.043,0.0601,0.0606,0.07,0.0713,0.0553,0.0553,0.0553,0.0553,0.0552,0,-0.0438,-0.0433,-0.039,-0.0386,-0.0348,-0.0325,-0.03,-0.0245,-0.0238,-0.0245,-0.0149,-0.013,0.0019,0.011,0.0256,0.0443,0.0407,0.0608,0.065,0.0586,0.0587,0.063,0.0638,0.0556,0.0555,0.0554,0.0554,0,-0.0484,-0.0464,-0.0439,-0.0388,-0.0366,-0.0342,-0.0349,-0.0374,-0.0346,-0.0361,-0.036,-0.0277,-0.0134,0.0029,0.0246,0.0406,0.0607,0.0692,0.0589,0.0622,0.0766,0.0758,0.0904,0.0909,0.0912,0.0915,0.0918,0,-0.0504,-0.0505,-0.0435,-0.0417,-0.0394,-0.0376,-0.0404,-0.0408,-0.045,-0.0437,-0.0463,-0.036,-0.0224,0.0112,0.0418,0.072,0.0679,0.0841,0.0872,0.0785,0.081,0.0796,0.0783,0.0823,0.0824,0.0826,0.0827,0,-0.0537,-0.0516,-0.0479,-0.0436,-0.0447,-0.0496,-0.0525,-0.0552,-0.0581,-0.0578,-0.0516,-0.0404,-0.0099,0.0244,0.061,0.0778,0.0799,0.0885,0.0822,0.0764,0.0722,0.0742,0.0729,0.0838,0.0837,0.0836,0.0836,0.0835,-0.0539,-0.0514,-0.0475,-0.0435,-0.05,-0.06,-0.0599,-0.0635,-0.0651,-0.0598,-0.0501,-0.0242,-0.0026,0.0601,0.0741,0.0923,0.0997,0.1033,0.1023,0.1012,0.1012,0.0982,0.1143,0.1143,0.1144,0.1144,0.1145,0,-0.0551,-0.0527,-0.0489,-0.0467,-0.059,-0.0628,-0.0698,-0.0693,-0.0641,-0.0515,-0.0386,-0.0031,0.0339,0.0566,0.0914,0.1086,0.0997,0.1031,0.0879,0.0872,0.0865,0.0848,0.094,0.0939,0.0938,0.0937,0,0,-0.0543,-0.0526,-0.0501,-0.0591,-0.0623,-0.077,-0.081,-0.0735,-0.0609,-0.0425,-0.0162,0.0133,0.0476,0.0643,0.075,0.0867,0.0797,0.0834,0.1,0.0796,0.0784,0.0893,0.0867,0,0,0,0,0]}],[{"header":{"parameterUnit":"m.s-1","parameterCategory":2,"la1":30.2991,"la2":30.254,"lo1":-89.0895,"lo2":-89.0444,"dy":0.0017,"dx":0.0017,"nx":28,"ny":28,"refTime":"2025-07-10T21:00:00:Z","depth":"4","parameterNumber":2,"parameterNumberName":"U-component_of_CURRENTS"},"data":[0,0,0,0,0,0,0,0,0,0,0,0,0,0,0,0,0,0,0,0,0,0,0,0,0,0,0,0,0,0,0,0,0,0,0,0,0,0,0,0,0,0,0,0,0,0,0,0,0,0,0,0,0,0,0,0,0,0,-0.1216,-0.1216,0,-0.1265,-0.1265,-0.1266,-0.1287,-0.1287,-0.1287,-0.1287,-0.1349,-0.1351,-0.1353,0,0,0,0,0,0,0,0,0,0,0,0,0,-0.1193,-0.1193,-0.1216,-0.1216,-0.1217,-0.1265,-0.1265,-0.1266,-0.1287,-0.1287,-0.1287,-0.1286,-0.1349,-0.1351,-0.1353,0,0,0,0,0,0,0,0,0,0,0,0,0,-0.1219,-0.1193,-0.1216,-0.1233,-0.1235,-0.1265,-0.1265,-0.1266,-0.1287,-0.1287,-0.1287,-0.1286,-0.1348,-0.135,-0.1353,-0.1373,0,0,-0.1361,-0.1362,0,0,0,0,0,0,0,0,-0.1217,-0.122,-0.123,-0.1232,-0.1234,-0.1269,-0.128,-0.1303,-0.1287,-0.1268,-0.1287,-0.1286,-0.1324,-0.1328,-0.1338,-0.1376,-0.1379,-0.1361,-0.1363,-0.1364,-0.1365,0,0,0,0,0,0,0,-0.1215,-0.1218,-0.1236,-0.123,-0.1233,-0.1256,-0.1259,-0.1285,-0.1297,-0.1269,-0.1271,-0.1276,-0.1325,-0.1336,-0.134,-0.138,-0.1361,-0.1364,-0.1365,-0.1366,-0.1455,-0.1456,0,0,0,0,0,0,-0.1206,-0.1216,-0.1234,-0.1237,-0.1224,-0.1256,-0.126,-0.1258,-0.1296,-0.1301,-0.1276,-0.1276,-0.1331,-0.1337,-0.1342,-0.1406,-0.1364,-0.1367,-0.1368,-0.1454,-0.1455,-0.1456,0,0,0,0,0,0,-0.1205,-0.1207,-0.1232,-0.1228,-0.1232,-0.1256,-0.1255,-0.1259,-0.1287,-0.1301,-0.1306,-0.13,-0.1331,-0.1338,-0.1373,-0.1407,-0.1368,-0.137,-0.1453,-0.1454,-0.1455,-0.151,0,0,0,0,0,0,-0.1204,-0.1206,-0.1213,-0.1227,-0.1232,-0.1254,-0.1255,-0.1261,-0.1289,-0.1291,-0.1324,-0.1328,-0.1332,-0.1369,-0.1375,-0.141,-0.1372,-0.1452,-0.1454,-0.1455,-0.1507,-0.1512,-0.1517,0,0,0,0,0,-0.1203,-0.1206,-0.1213,-0.1216,-0.1237,-0.1254,-0.126,-0.1277,-0.129,-0.1302,-0.1324,-0.1328,-0.1382,-0.1372,-0.1379,-0.1416,-0.1452,-0.1453,-0.1455,-0.1505,-0.1511,-0.1517,0,0,0,0,0,0,-0.1202,-0.1209,-0.1217,-0.1223,-0.1241,-0.1258,-0.1274,-0.129,-0.1318,-0.1328,-0.1341,-0.1347,-0.1388,-0.1391,-0.1379,-0.1442,-0.1417,-0.142,-0.1452,-0.1458,-0.1463,-0.1457,-0.1375,0,0,0,0,0,-0.1205,-0.1208,-0.1222,-0.123,-0.124,-0.1264,-0.1279,-0.1292,-0.1314,-0.1328,-0.1351,-0.1375,-0.1399,-0.142,-0.1435,-0.1477,-0.1452,-0.1502,-0.1508,-0.1512,-0.1511,-0.1488,-0.149,-0.1461,-0.1461,-0.1461,0,0,-0.1209,-0.1213,-0.1217,-0.1231,-0.1249,-0.1279,-0.1273,-0.1299,-0.1335,-0.1331,-0.1388,-0.1395,-0.1411,-0.1451,-0.1471,-0.1463,-0.1509,-0.1514,-0.1518,-0.1514,-0.149,-0.1492,-0.1495,-0.1462,-0.1462,-0.1462,0,0,-0.1218,-0.1222,-0.1233,-0.1253,-0.128,-0.1296,-0.1309,-0.1339,-0.1361,-0.1409,-0.1413,-0.1435,-0.1484,-0.1495,-0.1509,-0.1552,-0.1532,-0.1565,-0.1598,-0.1576,-0.1578,-0.158,-0.1558,-0.1557,-0.1574,-0.1574,-0.1574,0,-0.1229,-0.124,-0.1241,-0.1266,-0.1289,-0.1309,-0.1341,-0.1373,-0.1413,-0.1427,-0.1434,-0.1484,-0.1504,-0.1541,-0.1561,-0.1566,-0.1546,-0.1577,-0.1583,-0.1583,-0.1584,-0.1561,-0.1559,-0.1577,-0.1577,-0.1576,-0.1576,0,-0.1243,-0.1271,-0.1281,-0.1319,-0.1344,-0.1371,-0.141,-0.1442,-0.1473,-0.1495,-0.1533,-0.1548,-0.1568,-0.1589,-0.1599,-0.162,-0.1602,-0.1586,-0.1566,-0.159,-0.1565,-0.1562,-0.1581,-0.158,-0.1579,-0.1579,0,0,-0.1224,-0.128,-0.1289,-0.1316,-0.1373,-0.1389,-0.1453,-0.1494,-0.1521,-0.1563,-0.1587,-0.1639,-0.1627,-0.164,-0.1645,-0.1646,-0.1646,-0.1629,-0.1626,-0.1607,-0.1596,-0.1492,-0.1478,-0.163,-0.163,-0.1629,-0.1579,0,-0.1241,-0.1289,-0.1316,-0.1379,-0.1409,-0.1449,-0.1496,-0.1539,-0.1572,-0.1599,-0.1617,-0.1637,-0.1654,-0.1655,-0.1663,-0.1643,-0.164,-0.1661,-0.1576,-0.1574,-0.1477,-0.1471,-0.1628,-0.1577,-0.1576,-0.1576,-0.1575,0,-0.1249,-0.1279,-0.1338,-0.1398,-0.1413,-0.1456,-0.151,-0.1552,-0.1597,-0.1615,-0.1637,-0.1641,-0.166,-0.1657,-0.1642,-0.1653,-0.1633,-0.1618,-0.1614,-0.1493,-0.1463,-0.1546,-0.1569,-0.157,-0.157,-0.1571,-0.1571,0,-0.1221,-0.1294,-0.1336,-0.1363,-0.1436,-0.1467,-0.1501,-0.1554,-0.1566,-0.1611,-0.1606,-0.1636,-0.1622,-0.1619,-0.1608,-0.1619,-0.1572,-0.1573,-0.1459,-0.1452,-0.1539,-0.1538,-0.1548,-0.1548,-0.1548,-0.1548,-0.1548,0,-0.1215,-0.1254,-0.1329,-0.1353,-0.1386,-0.1448,-0.1472,-0.1514,-0.1546,-0.154,-0.1596,-0.1572,-0.1607,-0.159,-0.1594,-0.151,-0.1554,-0.1453,-0.1425,-0.1565,-0.1567,-0.1537,-0.1537,-0.1546,-0.1547,-0.1547,-0.1547,0,-0.1178,-0.1234,-0.1283,-0.1358,-0.1377,-0.1397,-0.1431,-0.1443,-0.1484,-0.1475,-0.1479,-0.1505,-0.1473,-0.1502,-0.1481,-0.1452,-0.1411,-0.1373,-0.1521,-0.1504,-0.1313,-0.1316,-0.1228,-0.1224,-0.122,-0.1217,-0.1215,0,-0.1158,-0.1184,-0.1263,-0.1279,-0.1315,-0.1343,-0.1356,-0.1403,-0.1403,-0.1412,-0.1394,-0.1376,-0.1386,-0.1255,-0.132,-0.1302,-0.1296,-0.1274,-0.1299,-0.1295,-0.1278,-0.1286,-0.1294,-0.1209,-0.1208,-0.1207,-0.1206,0,-0.1115,-0.1157,-0.1191,-0.1223,-0.1249,-0.1257,-0.1278,-0.1253,-0.1292,-0.133,-0.1236,-0.1204,-0.116,-0.1152,-0.1144,-0.1144,-0.1292,-0.1236,-0.1244,-0.1267,-0.1271,-0.1259,-0.1271,-0.1194,-0.1195,-0.1197,-0.1197,0,-0.1076,-0.1087,-0.1139,-0.1151,-0.1182,-0.1174,-0.1183,-0.1151,-0.1137,-0.1145,-0.1102,-0.1096,-0.1114,-0.1067,-0.1069,-0.1052,-0.1042,-0.1023,-0.1042,-0.1056,-0.1031,-0.1013,-0.0817,0,0,0,0,0,-0.1031,-0.1039,-0.1057,-0.1068,-0.1095,-0.111,-0.1138,-0.115,-0.1165,-0.1055,-0.1067,-0.1015,-0.0963,-0.0969,-0.0919,-0.1048,-0.1093,-0.0991,-0.1092,-0.1124,-0.1139,-0.113,0,0,0,0,0,0,-0.1002,-0.103,-0.1036,-0.0999,-0.0985,-0.1002,-0.1018,-0.1035,-0.0965,-0.0976,-0.0939,-0.0951,-0.0919,-0.0961,-0.0891,-0.0902,-0.0945,-0.0997,-0.0994,-0.1116,-0.1129,-0.1141,-0.1137,0,0,0,0,0]},{"header":{"parameterUnit":"m.s-1","parameterCategory":2,"la1":30.2991,"la2":30.254,"lo1":-89.0895,"lo2":-89.0444,"dy":0.0017,"dx":0.0017,"nx":28,"ny":28,"refTime":"2025-07-10T21:00:00:Z","depth":"4","parameterNumber":3,"parameterNumberName":"V-component_of_CURRENTS"},"data":[0,0,0,0,0,0,0,0,0,0,0,0,0,0,0,0,0,0,0,0,0,0,0,0,0,0,0,0,0,0,0,0,0,0,0,0,0,0,0,0,0,0,0,0,0,0,0,0,0,0,0,0,0,0,0,0,0,0,-0.0211,-0.0211,0,-0.0203,-0.0203,-0.0203,-0.0184,-0.0184,-0.0184,-0.0183,-0.0121,-0.0119,-0.0118,0,0,0,0,0,0,0,0,0,0,0,0,0,-0.017,-0.0171,-0.0211,-0.0211,-0.0211,-0.0203,-0.0203,-0.0202,-0.0184,-0.0184,-0.0183,-0.0183,-0.0121,-0.012,-0.0118,0,0,0,0,0,0,0,0,0,0,0,0,0,-0.0177,-0.0171,-0.0211,-0.0201,-0.02,-0.0203,-0.0203,-0.0202,-0.0184,-0.0184,-0.0183,-0.0183,-0.0122,-0.012,-0.0118,-0.0116,0,0,-0.0112,-0.0111,0,0,0,0,0,0,0,0,-0.0177,-0.0178,-0.0203,-0.0202,-0.0201,-0.0194,-0.0165,-0.0171,-0.0185,-0.019,-0.0183,-0.0183,-0.0141,-0.0137,-0.0137,-0.0113,-0.011,-0.0111,-0.011,-0.0109,-0.0109,0,0,0,0,0,0,0,-0.0176,-0.0178,-0.0208,-0.0203,-0.0202,-0.0183,-0.0184,-0.0166,-0.0167,-0.019,-0.0188,-0.0188,-0.014,-0.0139,-0.0135,-0.0109,-0.0112,-0.011,-0.0108,-0.0108,-0.0062,-0.0062,0,0,0,0,0,0,-0.0181,-0.0178,-0.0208,-0.0207,-0.0188,-0.0184,-0.0185,-0.0197,-0.0169,-0.0164,-0.0189,-0.0187,-0.0143,-0.0138,-0.0133,-0.009,-0.0109,-0.0108,-0.0106,-0.0062,-0.0062,-0.0062,0,0,0,0,0,0,-0.018,-0.0184,-0.0208,-0.0192,-0.0194,-0.0186,-0.0199,-0.0197,-0.0195,-0.0168,-0.0163,-0.0189,-0.0142,-0.0136,-0.0118,-0.0089,-0.0107,-0.0105,-0.0062,-0.0062,-0.0062,-0.0028,0,0,0,0,0,0,-0.0179,-0.0184,-0.0195,-0.0193,-0.0195,-0.0212,-0.0199,-0.0197,-0.0196,-0.0194,-0.0167,-0.016,-0.0141,-0.0121,-0.0116,-0.0086,-0.0103,-0.0062,-0.0062,-0.0062,-0.0029,-0.0027,-0.0025,0,0,0,0,0,-0.0178,-0.0197,-0.0196,-0.0199,-0.021,-0.0212,-0.0211,-0.0203,-0.0196,-0.0199,-0.0179,-0.0161,-0.0117,-0.012,-0.0114,-0.0082,-0.0062,-0.0062,-0.0062,-0.003,-0.0027,-0.0025,0,0,0,0,0,0,-0.0186,-0.0197,-0.0195,-0.0217,-0.0215,-0.0209,-0.0213,-0.0206,-0.0194,-0.0191,-0.0164,-0.0156,-0.0131,-0.0121,-0.0125,-0.0073,-0.0086,-0.0085,-0.0063,-0.006,-0.0058,-0.0042,-0.0102,0,0,0,0,0,-0.0194,-0.021,-0.0211,-0.0227,-0.0228,-0.0221,-0.0221,-0.0215,-0.0204,-0.0199,-0.0179,-0.0156,-0.0128,-0.0107,-0.0094,-0.0063,-0.0025,-0.0041,-0.0039,-0.0037,-0.0022,0.0067,0.008,-0.0062,-0.0062,-0.0062,0,0,-0.0201,-0.0209,-0.0218,-0.023,-0.0228,-0.0223,-0.022,-0.0223,-0.0205,-0.0193,-0.0169,-0.0155,-0.0124,-0.0091,-0.0077,-0.0074,0.0018,-0.0037,-0.0035,-0.0021,0.0069,0.0083,0.0096,-0.0062,-0.0062,-0.0062,0,0,-0.0219,-0.0232,-0.0247,-0.0244,-0.0244,-0.0234,-0.0235,-0.023,-0.0214,-0.0198,-0.0175,-0.0137,-0.0118,-0.0066,-0.0041,-0.0019,0.0017,-0.0029,0.0014,0.0101,0.0115,0.0127,0.0181,0.0198,-0.0015,-0.0015,-0.0015,0,-0.0227,-0.024,-0.0249,-0.0253,-0.0241,-0.0236,-0.0229,-0.0215,-0.0202,-0.0174,-0.019,-0.0116,-0.0093,-0.0006,-0.0002,-0.0006,0.0027,0.0007,0.0108,0.0121,0.0134,0.0186,0.0205,-0.0013,-0.0013,-0.0013,-0.0014,0,-0.0244,-0.025,-0.0257,-0.0254,-0.0245,-0.0242,-0.0218,-0.0203,-0.0187,-0.0162,-0.01,-0.0066,-0.0012,0.0001,0.0007,0.0107,0.0095,0.0094,0.0111,0.0151,0.0202,0.0221,-0.0011,-0.0011,-0.0012,-0.0012,0,0,-0.0273,-0.0269,-0.0271,-0.0253,-0.024,-0.0228,-0.0197,-0.0151,-0.0109,-0.0089,-0.0021,0.0034,0.0054,0.0083,0.0109,0.0186,0.0294,0.0173,0.0177,0.0241,0.0464,0.0388,0.0401,0.031,0.0314,0.0317,0.046,0,-0.0278,-0.0277,-0.0269,-0.0243,-0.0231,-0.0201,-0.0163,-0.0119,-0.0083,-0.0025,0.0042,0.0095,0.0087,0.0117,0.0196,0.0257,0.0346,0.0254,0.0401,0.0406,0.0348,0.0422,0.0329,0.0474,0.0479,0.0482,0.0484,0,-0.0295,-0.0284,-0.027,-0.0213,-0.0203,-0.0184,-0.0104,-0.0069,0.0014,0.0043,0.0115,0.0146,0.0254,0.0236,0.0403,0.0338,0.0409,0.0462,0.0469,0.0405,0.0366,0.0427,0.0518,0.0516,0.0513,0.0511,0.0509,0,-0.0305,-0.0276,-0.0258,-0.0246,-0.0193,-0.0164,-0.0123,-0.005,-0.0003,0.0088,0.0118,0.0238,0.0289,0.0405,0.0478,0.0455,0.0652,0.0641,0.0653,0.0647,0.0657,0.0642,0.0797,0.0797,0.0796,0.0796,0.0795,0,-0.0313,-0.0297,-0.0261,-0.0254,-0.0196,-0.0161,-0.0092,-0.0042,0.0033,0.008,0.0151,0.0199,0.0333,0.0434,0.0518,0.0626,0.0692,0.0684,0.0695,0.0662,0.0646,0.067,0.0653,0.0801,0.08,0.0799,0.0798,0,-0.0339,-0.0325,-0.0294,-0.0236,-0.021,-0.017,-0.0085,-0.0042,0.002,0.008,0.0104,0.0199,0.0319,0.0448,0.0631,0.066,0.0784,0.0814,0.0757,0.0758,0.0717,0.07,0.0864,0.0863,0.0862,0.0862,0.0861,0,-0.0351,-0.0348,-0.0288,-0.0261,-0.0239,-0.0172,-0.0134,-0.0056,-0.0028,0.0062,0.0074,0.0204,0.0269,0.0471,0.0605,0.0792,0.08,0.0852,0.0805,0.0737,0.0732,0.0717,0.0701,0.0859,0.0859,0.0859,0.0859,0,-0.0368,-0.0362,-0.0332,-0.0279,-0.0241,-0.0192,-0.0145,-0.0126,-0.0063,0.0002,0.005,0.0152,0.0287,0.044,0.0585,0.0712,0.0809,0.0843,0.0845,0.0802,0.0733,0.0725,0.0712,0.0855,0.0856,0.0856,0.0856,0,-0.0376,-0.036,-0.0334,-0.0282,-0.0253,-0.025,-0.0199,-0.0167,-0.0122,-0.0043,-0.0028,0.0123,0.023,0.04,0.053,0.0649,0.0674,0.0674,0.0686,0.0692,0.0578,0.046,0.0536,0,0,0,0,0,-0.0379,-0.0371,-0.033,-0.0297,-0.0288,-0.0282,-0.0232,-0.0193,-0.014,-0.0122,-0.0075,0.0044,0.0229,0.0324,0.0435,0.0516,0.0695,0.0643,0.0701,0.0837,0.0841,0.0728,0,0,0,0,0,0,-0.0374,-0.0362,-0.0339,-0.0348,-0.0349,-0.0347,-0.0333,-0.0289,-0.0265,-0.0192,-0.0078,0.0009,0.0216,0.0153,0.041,0.0453,0.0489,0.0757,0.0758,0.0835,0.0839,0.0842,0.0727,0,0,0,0,0]}]]